User: anonymous   Login
Location: Marion Hill
(40.7303°N, 80.2959°W)
Time: 13:31:30
(UTC+00:00)
Language:

Cosmos 2219 - Orbit

View from above orbital plane
View from above orbital plane
View from above satellite
View from above satellite

Ground track
Ground track

The orbit data is extracted from the following two-line orbital elements,

1 22219U 92076A   21019.81388935 -.00000091  00000-0 -23425-4 0  9990
2 22219  71.0627 335.7337 0018388 192.8899 167.1756 14.13659981453390
Epoch (UTC): 19 January 2021 19:32:00
Eccentricity: 0.0018388
inclination: 71.0627°
perigee height: 833 km
apogee height: 860 km
right ascension of ascending node: 335.7337°
argument of perigee: 192.8899°
revolutions per day: 14.13659981
mean anomaly at epoch: 167.1756°
orbit number at epoch: 45339

The dashed part of the orbit path shows where the satellite is in the earth's shadow,  

DLR